Volver al catálogo

HULIANWANG DIGUI-77

ActivoComunicacionesLEO
NORAD 65309·PAYLOAD·🇨🇳 China

Lanzado Aug 25, 2025 desde Wenchang Space Launch Site

Loading…

Próximos Pases (próximas 24 horas)

TLE

ActualizadoSource: Space-Track

Época: Sep 14, 2026, 13:01 UTC

1 65309U 25187E   26257.54257393 -.00000098  00000-0  55752-4 0  9992
2 65309  50.0031 245.5381 0000858 339.4239  20.6599 13.29326416 51583

Sigue HULIANWANG DIGUI-77 en tiempo real con AllMySat

Download on the App Store